Wind_Speed
16 17 17 18 18 18 18 17 17 19 21 22 22 22 23 23 23 24 23 24 24 25 26 27 27 28 28 28 29 29 28 29 29 29 29 30 30 31 32 33 33 32 32 32
16 17 18 19 19 18 18 18 18 19 20 21 21 21 21 21 22 22 23 23 23 24 24 26 27 27 28 28 28 28 28 28 29 29 30 30 30 31 32 33 32 31 31 31
18 18 19 18 18 18 18 17 18 19 21 22 22 21 21 22 22 23 23 23 23 24 25 26 27 27 27 27 27 28 27 27 28 29 29 29 30 31 31 32 32 32 31 31
19 19 18 18 18 17 17 17 18 19 20 21 22 22 21 22 23 24 24 25 25 25 26 27 27 27 27 26 27 27 27 27 27 27 28 28 29 30 30 30 29 30 31 31
19 19 17 17 17 16 16 17 17 18 19 20 20 21 19 21 22 23 25 25 25 25 26 26 27 27 27 27 27 27 27 27 27 27 27 27 27 28 29 29 29 28 28 28
18 17 16 16 17 16 16 16 17 17 17 18 19 20 19 20 21 21 22 23 24 25 25 25 26 27 27 27 27 27 27 27 27 27 26 26 25 25 26 28 29 29 27 26
16 16 15 15 16 16 15 16 17 17 16 17 17 18 18 18 19 19 20 21 22 24 24 24 25 26 26 26 26 27 27 27 27 26 26 25 24 24 24 25 27 27 25 25
16 16 15 15 15 15 15 15 16 17 17 16 17 17 17 17 18 19 20 21 21 21 22 23 24 26 25 25 25 25 25 24 25 25 25 24 23 23 23 24 25 25 24 23
15 16 16 15 15 15 15 15 15 16 16 16 15 15 16 17 18 19 20 19 19 20 21 22 23 24 24 25 25 23 23 23 22 24 25 24 23 22 22 23 23 23 23 22
15 16 16 15 15 15 15 15 15 16 17 16 15 15 15 16 18 18 19 19 19 20 20 21 22 22 23 24 23 23 22 22 22 23 24 24 22 21 22 22 23 23 23 22
15 15 15 15 14 14 15 15 15 16 17 17 17 15 16 17 18 18 18 19 19 20 20 21 21 21 22 21 22 22 22 22 22 22 22 23 22 21 21 22 23 22 21 22
14 15 15 15 14 14 15 15 16 17 17 17 18 16 16 18 19 19 20 20 20 20 20 21 22 22 22 22 22 22 22 22 21 21 21 20 21 21 20 20 22 22 22 23
15 15 15 15 14 14 14 14 15 16 17 18 18 18 18 19 20 21 22 22 22 22 22 23 23 23 23 23 23 22 22 22 22 22 22 21 21 20 20 21 21 21 22 23
15 14 14 14 14 14 14 14 14 15 16 17 17 18 19 21 22 23 23 23 24 24 24 24 24 24 23 23 23 23 22 22 21 21 21 21 21 21 20 21 22 21 22 23
15 14 13 13 13 13 13 13 14 15 16 18 17 19 21 22 22 23 24 24 25 24 24 25 24 24 23 23 22 21 21 20 20 20 20 21 21 21 21 22 22 21 22 22
16 15 13 13 14 14 13 14 15 15 17 18 19 20 22 23 23 24 24 25 25 25 25 24 23 23 21 21 20 19 19 19 19 19 19 20 21 21 21 22 21 20 21 21
15 15 14 14 14 13 13 13 14 15 17 18 20 21 22 23 24 25 25 25 25 25 24 23 23 21 19 18 18 17 17 17 18 18 19 19 20 20 21 21 21 21 21 20
15 16 15 14 13 13 12 13 14 15 16 18 19 21 22 23 24 25 26 26 25 24 23 22 21 20 18 17 17 16 16 16 16 17 18 19 19 20 19 20 21 20 19 19
14 14 13 13 12 11 11 13 14 15 16 18 20 21 22 24 24 25 25 25 24 22 21 20 19 18 16 15 14 15 15 15 16 16 17 18 18 18 19 18 18 19 18 18
13 13 13 12 11 11 11 12 14 16 16 18 20 21 23 23 24 24 24 23 22 20 19 18 17 16 14 13 11 11 12 13 13 14 15 16 16 17 17 16 16 17 16 16
12 12 12 11 11 11 12 13 14 15 16 18 20 21 22 22 22 22 21 20 19 18 16 15 14 13 11 10 9 9 9 11 12 12 12 12 13 14 15 15 14 14 15 15
11 11 11 11 11 12 12 12 13 15 16 18 20 21 20 20 21 20 19 18 16 15 13 12 12 10 9 8 8 8 8 9 10 11 11 11 11 12 13 12 12 12 13 14
11 10 10 10 10 10 10 11 13 15 17 18 19 19 19 19 19 18 16 15 13 11 10 8 7 7 7 6 6 7 7 7 7 9 10 10 10 10 10 10 11 11 11 11
11 10 8 8 8 9 9 11 13 15 16 17 17 18 18 18 17 15 14 13 10 8 7 5 5 4 5 5 5 5 5 6 6 7 8 9 9 9 10 10 10 10 9 9
10 9 8 7 7 7 8 10 12 14 15 16 16 17 17 16 14 12 11 10 8 6 4 2 1 0 2 3 4 4 4 5 6 6 7 7 8 8 8 7 7 7 7 7
10 9 8 7 7 7 8 9 11 13 14 15 15 15 14 13 12 11 9 8 6 5 3 2 2 2 3 3 3 4 4 4 5 5 5 6 6 6 6 5 5 4 4 4
Wind_Direction
222 222 220 221 223 226 227 227 229 234 239 242 245 247 251 255 258 262 264 264 265 267 270 272 274 274 273 273 272 272 270 268 268 268 265 263 262 259 257 257 257 256 258 258
217 218 220 222 224 226 227 228 231 236 242 246 249 252 256 261 264 265 268 270 273 274 277 276 276 276 274 272 271 271 271 270 269 268 266 264 262 259 255 255 258 258 257 254
215 218 222 223 226 229 230 234 236 240 246 251 256 259 263 267 270 272 274 276 277 278 279 277 275 275 273 271 270 269 272 272 270 268 266 264 263 259 258 256 255 256 257 254
214 219 222 225 229 233 235 240 241 245 251 255 262 264 267 271 275 278 280 279 279 280 281 277 275 276 274 272 271 271 271 270 267 266 265 264 264 261 258 259 255 254 254 253
215 221 224 228 232 236 240 243 247 251 256 261 267 271 272 276 278 281 282 282 280 279 279 278 277 277 275 275 275 272 271 271 269 267 265 263 262 259 257 254 252 254 255 252
218 224 226 230 236 242 246 250 254 257 262 267 272 275 279 281 283 286 285 283 280 279 279 277 277 276 276 275 275 273 271 270 269 267 265 261 260 257 254 252 252 249 252 251
217 224 228 231 236 245 250 256 259 263 267 274 276 279 285 286 288 290 289 287 285 282 280 279 278 277 276 275 274 272 271 270 267 265 263 260 257 254 251 248 248 247 249 248
214 219 225 233 240 247 253 261 265 269 272 277 278 282 289 290 291 293 293 291 290 287 285 283 280 280 279 276 274 270 270 270 267 263 260 259 255 252 248 246 246 245 244 246
214 219 226 234 243 251 259 264 268 272 277 280 283 286 292 295 293 294 295 295 293 288 286 285 284 283 279 277 275 271 270 268 265 262 259 256 254 253 248 245 244 243 243 242
218 219 227 235 246 255 262 269 269 273 282 286 287 291 299 298 296 297 298 297 294 290 287 286 287 286 282 278 274 271 269 267 264 261 259 255 254 252 246 244 242 241 242 241
227 229 233 241 249 258 265 273 277 278 283 290 294 299 301 299 299 301 301 300 296 293 290 291 290 287 285 279 273 269 268 266 263 260 257 255 251 247 242 239 238 237 239 238
235 238 239 245 254 264 272 277 279 280 284 289 297 305 302 301 301 301 301 301 298 295 292 291 290 289 286 282 275 269 266 264 261 258 255 252 248 243 240 238 238 239 239 238
239 247 247 247 257 266 273 278 280 283 286 291 297 304 303 300 300 300 300 299 299 297 295 292 291 290 287 281 275 270 265 261 258 257 252 244 241 239 240 239 237 238 239 238
241 250 252 254 264 270 273 277 279 285 290 293 297 300 302 301 300 300 299 299 297 295 293 293 292 290 286 280 273 269 266 259 256 253 246 241 238 237 237 237 237 237 237 235
241 249 253 257 265 271 274 278 280 285 290 293 298 300 303 303 302 300 300 298 297 295 293 293 293 290 286 281 273 268 264 256 252 246 241 239 237 235 235 233 233 236 234 231
241 247 253 257 265 273 278 280 281 286 292 293 297 301 302 303 302 301 300 299 297 293 292 292 291 289 285 280 273 266 258 250 246 242 240 236 235 234 232 231 232 233 230 231
243 245 250 257 267 276 281 283 283 289 294 297 300 302 303 302 301 301 300 299 297 294 292 291 290 286 281 277 271 261 254 249 239 235 235 235 233 233 232 233 234 234 234 233
243 248 255 261 269 276 283 281 285 291 296 298 300 303 303 303 303 302 301 299 298 295 292 291 288 285 281 275 266 257 252 244 236 231 230 229 230 231 232 232 231 232 235 235
243 247 255 266 273 278 280 283 287 292 296 300 303 305 306 305 304 303 303 301 299 296 292 289 286 283 281 276 265 251 242 237 234 231 231 231 232 231 233 231 232 234 237 236
239 246 256 266 275 283 282 287 292 296 299 302 304 307 308 308 307 306 305 303 301 296 292 288 285 282 278 272 263 251 239 234 232 233 234 233 232 229 228 230 231 232 235 239
242 247 255 263 275 282 287 291 297 300 305 306 307 309 311 311 310 309 308 306 303 298 294 289 285 281 274 265 258 248 235 228 228 227 228 225 224 225 224 225 228 233 238 244
242 249 254 263 275 283 289 296 300 305 308 310 313 315 315 315 314 313 311 309 306 302 297 290 282 274 263 256 245 237 233 227 225 225 223 222 224 228 224 222 223 230 239 243
238 244 252 259 273 283 289 296 304 309 312 315 318 319 320 320 318 317 315 314 314 309 302 294 281 269 256 252 238 228 228 227 222 218 215 215 218 217 218 221 225 231 235 239
234 238 243 254 265 282 293 300 308 314 318 321 322 324 325 325 322 321 320 322 324 319 309 296 287 270 250 233 217 210 213 215 213 211 207 207 209 210 213 220 225 227 231 239
226 227 234 247 260 281 296 306 313 317 321 324 327 329 330 332 331 332 335 341 344 339 335 336 325 245 185 182 189 197 204 201 197 195 194 193 198 203 206 210 217 225 233 236
218 222 233 246 260 281 301 314 319 324 328 331 333 336 340 343 346 348 352 359 6 14 32 51 70 89 112 127 141 154 156 160 162 163 168 172 175 177 182 190 197 208 220 234
Height
5784 5788 5789 5791 5793 5795 5797 5799 5801 5802 5803 5805 5806 5808 5809 5809 5810 5811 5811 5812 5812 5812 5812 5812 5812 5812 5811 5811 5811 5811 5811 5812 5812 5813 5814 5815 5816 5816 5818 5818 5819 5820 5823 5824
5782 5784 5786 5788 5790 5792 5794 5797 5798 5800 5800 5801 5802 5804 5805 5805 5805 5806 5806 5806 5807 5807 5807 5806 5806 5805 5805 5805 5804 5804 5804 5804 5805 5806 5807 5808 5809 5810 5811 5811 5812 5813 5814 5817
5779 5782 5783 5786 5788 5790 5792 5794 5796 5797 5797 5798 5799 5800 5801 5801 5801 5801 5801 5801 5801 5800 5800 5800 5799 5799 5798 5798 5797 5797 5797 5797 5797 5798 5799 5800 5801 5803 5804 5804 5805 5806 5808 5809
5776 5779 5781 5784 5786 5788 5790 5792 5793 5793 5794 5795 5796 5796 5797 5796 5796 5796 5795 5795 5795 5794 5794 5793 5792 5792 5791 5791 5791 5790 5790 5790 5790 5790 5791 5792 5794 5795 5796 5797 5798 5800 5801 5802
5774 5777 5780 5782 5784 5786 5788 5789 5790 5791 5791 5791 5791 5792 5793 5792 5791 5791 5790 5789 5788 5788 5787 5786 5785 5785 5785 5784 5784 5783 5783 5783 5783 5783 5784 5785 5786 5787 5788 5790 5791 5793 5794 5796
5773 5776 5779 5781 5783 5784 5785 5787 5787 5788 5788 5788 5788 5788 5789 5788 5787 5786 5784 5783 5782 5781 5780 5780 5779 5778 5777 5777 5776 5776 5776 5776 5776 5776 5776 5777 5779 5780 5781 5782 5784 5786 5787 5789
5772 5775 5777 5779 5781 5782 5783 5785 5785 5785 5785 5785 5784 5784 5785 5783 5782 5781 5779 5778 5776 5775 5774 5773 5772 5771 5770 5769 5768 5768 5768 5768 5768 5768 5769 5770 5771 5773 5774 5776 5778 5780 5781 5783
5770 5773 5775 5776 5778 5779 5780 5781 5782 5782 5782 5782 5781 5780 5781 5779 5778 5776 5775 5773 5771 5769 5768 5767 5765 5764 5762 5762 5761 5761 5760 5761 5761 5761 5762 5763 5764 5765 5767 5769 5771 5773 5775 5777
5769 5771 5773 5774 5775 5777 5777 5778 5778 5778 5778 5777 5777 5777 5777 5775 5774 5772 5770 5768 5766 5764 5762 5760 5759 5757 5756 5755 5754 5754 5753 5754 5754 5754 5755 5756 5757 5758 5760 5762 5764 5766 5769 5771
5767 5769 5771 5772 5773 5774 5775 5775 5775 5775 5774 5773 5774 5773 5773 5771 5769 5767 5765 5763 5761 5759 5757 5755 5753 5751 5749 5748 5747 5747 5746 5747 5748 5748 5749 5750 5751 5752 5754 5756 5758 5761 5763 5766
5766 5768 5769 5770 5771 5771 5772 5772 5771 5771 5771 5770 5769 5772 5769 5767 5765 5763 5761 5758 5756 5754 5752 5749 5747 5745 5743 5742 5741 5740 5740 5740 5741 5742 5742 5744 5745 5747 5748 5750 5753 5755 5757 5760
5764 5766 5767 5768 5768 5768 5768 5768 5768 5768 5767 5766 5765 5768 5764 5762 5760 5758 5756 5753 5751 5749 5746 5744 5742 5739 5737 5736 5735 5734 5734 5734 5735 5735 5736 5738 5739 5741 5743 5745 5748 5750 5752 5755
5761 5763 5764 5765 5767 5766 5765 5765 5765 5764 5764 5762 5761 5764 5759 5757 5755 5753 5750 5748 5745 5743 5740 5738 5735 5733 5731 5729 5728 5728 5728 5728 5728 5729 5730 5732 5734 5736 5738 5740 5742 5745 5747 5749
5758 5759 5761 5762 5762 5762 5762 5762 5761 5761 5760 5758 5758 5757 5755 5752 5750 5747 5745 5742 5739 5737 5734 5732 5729 5726 5724 5723 5722 5721 5721 5721 5722 5723 5725 5727 5729 5731 5733 5735 5737 5739 5742 5744
5755 5756 5757 5758 5758 5759 5759 5758 5758 5757 5756 5755 5754 5752 5750 5747 5744 5742 5739 5736 5733 5731 5728 5725 5723 5720 5718 5716 5715 5715 5714 5715 5716 5717 5719 5721 5723 5726 5728 5730 5732 5734 5737 5739
5751 5753 5754 5755 5755 5755 5755 5755 5754 5753 5752 5751 5749 5748 5745 5742 5739 5736 5733 5730 5727 5724 5721 5719 5716 5714 5712 5710 5709 5709 5709 5709 5711 5713 5714 5716 5718 5721 5723 5725 5727 5729 5732 5734
5748 5750 5751 5752 5752 5752 5753 5752 5751 5750 5749 5747 5745 5744 5740 5737 5734 5730 5727 5724 5721 5718 5715 5712 5710 5708 5706 5705 5704 5703 5704 5704 5706 5708 5710 5712 5714 5716 5718 5720 5723 5725 5727 5729
5745 5746 5748 5749 5750 5750 5752 5749 5748 5747 5745 5743 5741 5738 5735 5732 5728 5724 5721 5717 5714 5711 5709 5706 5704 5702 5701 5700 5699 5699 5699 5700 5702 5704 5706 5708 5710 5712 5714 5716 5718 5721 5723 5725
5742 5744 5745 5746 5746 5747 5747 5746 5744 5743 5742 5740 5737 5734 5730 5726 5722 5718 5715 5711 5708 5705 5702 5700 5698 5697 5696 5695 5694 5695 5695 5697 5698 5700 5702 5704 5706 5708 5710 5712 5714 5717 5719 5721
5740 5741 5743 5744 5744 5744 5745 5743 5741 5741 5738 5736 5732 5729 5725 5721 5717 5714 5709 5705 5702 5699 5697 5695 5693 5692 5692 5691 5691 5691 5692 5693 5695 5697 5699 5700 5702 5704 5706 5709 5711 5713 5716 5718
5737 5739 5740 5741 5741 5741 5741 5739 5738 5738 5736 5731 5728 5724 5720 5716 5712 5708 5704 5700 5697 5694 5692 5690 5689 5689 5688 5688 5689 5689 5690 5691 5693 5694 5696 5698 5700 5701 5704 5706 5708 5711 5713 5715
5735 5736 5738 5739 5739 5741 5738 5737 5736 5734 5730 5727 5723 5719 5715 5711 5707 5703 5699 5696 5692 5690 5688 5687 5686 5686 5686 5686 5687 5687 5688 5689 5690 5692 5694 5695 5697 5699 5701 5704 5706 5708 5710 5712
5733 5735 5736 5737 5739 5737 5735 5734 5732 5730 5727 5723 5720 5716 5711 5707 5703 5699 5696 5692 5689 5687 5685 5684 5683 5683 5683 5684 5685 5686 5687 5687 5688 5690 5692 5694 5696 5698 5700 5702 5704 5706 5708 5710
5731 5733 5734 5734 5735 5734 5733 5731 5729 5727 5724 5720 5717 5712 5708 5704 5700 5696 5693 5690 5687 5685 5683 5682 5682 5682 5682 5683 5684 5685 5686 5687 5688 5689 5691 5693 5695 5697 5699 5701 5703 5704 5706 5707
5729 5731 5732 5733 5733 5733 5731 5729 5727 5725 5721 5718 5714 5710 5705 5701 5698 5694 5691 5688 5686 5684 5683 5682 5682 5681 5682 5682 5683 5684 5685 5686 5688 5689 5691 5692 5694 5696 5698 5700 5702 5703 5705 5706
5728 5729 5731 5731 5732 5731 5730 5728 5726 5723 5719 5716 5712 5708 5704 5700 5696 5693 5690 5688 5686 5685 5684 5683 5683 5682 5682 5683 5683 5684 5685 5687 5688 5689 5691 5692 5694 5696 5698 5700 5701 5702 5704 5705